Regional Weather Roundup
Issued by NWS

Home | Current Version | Previous Version | Graphics & Text | Print | Product List | Glossary On
Versions: 1 2 3 4 5 6 7 8 9 10 11 12 13 14 15 16 17 18 19 20 21 22 23 24 25 26 27 28 29 30 31 32 33 34 35 36 37 38 39 40 41 42 43 44 45 46 47 48 49 50
000
ASUS43 KLMK 221702
RWRKY
KENTUCKY REGIONAL WEATHER ROUNDUP
NATIONAL WEATHER SERVICE LOUISVILLE KY
100 PM EDT FRI MAY 22 2015

NOTE "FAIR" INDICATES FEW OR NO CLOUDS BELOW 12,000 FEET
WITH NO SIGNIFICANT WEATHER AND/OR OBSTRUCTIONS TO VISIBILITY.

KYZ001>023-026-027-061>063-070>075-221800-
WESTERN AND SOUTH CENTRAL KENTUCKY

CITY           SKY/WX    TMP DP  RH WIND       PRES   REMARKS
PADUCAH        SUNNY     70  45  40 CALM      30.28S
HENDERSON      SUNNY     66  48  52 SW8       30.26F
OWENSBORO      SUNNY     70  49  47 SW8       30.27F
HOPKINSVILLE   SUNNY     66  46  47 VRB5      30.29F
BOWLING GREEN  SUNNY     66  42  41 CALM      30.30F
GLASGOW        NOT AVBL
$$

KYZ024-025-028>034-038-045-046-053-221800-
NORTH CENTRAL KENTUCKY

CITY           SKY/WX    TMP DP  RH WIND       PRES   REMARKS
LOUISVILLE/SDF MOSUNNY   71  44  37 SW13      30.25F
LOUISVILLE/LOU SUNNY     70  43  37 SW9       30.26F
FORT KNOX      SUNNY     69  42  38 SW8       30.26S
$$

KYZ035>037-039>044-047>052-055>060-089>105-221800-
NORTHEAST KENTUCKY

CITY           SKY/WX    TMP DP  RH WIND       PRES   REMARKS
LEXINGTON      SUNNY     67  42  40 SW9       30.27F
COVINGTON      MOSUNNY   69  48  47 W12       30.22F
FRANKFORT      SUNNY     68  38  33 W8        30.26F
$$

KYZ054-064>069-076>088-106>120-221800-
SOUTHEAST KENTUCKY

CITY           SKY/WX    TMP DP  RH WIND       PRES   REMARKS
JACKSON        MOSUNNY   64  47  53 VRB5      30.29S
LONDON         SUNNY     65  40  39 MISG      30.29F
SOMERSET       NOT AVBL
MIDDLESBORO    MOSUNNY   63  44  49 CALM      30.30F
MONTICELLO     SUNNY     67  46  46 CALM      30.33F
$$




USA.gov is the U.S. government's official web portal to all federal, state and local government web resources and services.